Location: Fontevrault
(47.1823°N, 0.0493°E)
Time: 08:50:51
(UTC+00:00)

USA 267 - Pass Details

Date: 16 June 2021
Orbit: 1102 x 1106 km, 123.0° (Epoch: 24 July)

Event Time Altitude Azimuth Distance (km) Brightness Sun altitude
Exits shadow 22:12:23 - 104° (ESE) 3,459 5.5 -15.3°
Reaches altitude 10° 22:13:42 10° 102° (ESE) 2,959 5.2 -15.4°
Maximum altitude 22:20:04 59° 25° (NNE) 1,261 3.8 -15.9°
Drops below altitude 10° 22:26:29 10° 308° (NW) 2,969 6.5 -16.3°
Sets 22:29:00 0° 305° (NW) 3,929 7.2 -16.5°
